When you browse on this site, cookies collect data to enhance your experience and personalize the content and advertising you see.
Visit our Privacy Policy to learn more. By continuing to use the site, you agree to this use of cookies and data.
  • In Spain
  • List of Countries
  • For 7 days
  • Water Temperature
  • Satellite Maps
  • Weather Map
  • Weather Widgets
  • user-avatar
    Login

    Hourly Weather Pozhega

    Today, 26 June, Wednesday

    Time Temperature Precipitation Wind Pressure Humidity
    00:00 +20°C° 0 mm 0 mps 750 mmHg 90%
    01:00 +20°C° 0 mm 0 mps 751 mmHg 91%
    02:00 +20°C° 0 mm 0 mps 750 mmHg 91%
    03:00 +19°C° 0 mm 0 mps 750 mmHg 91%
    04:00 +19°C° 0 mm 0 mps 750 mmHg 92%
    05:00 +21°C° 0 mm 0 mps 750 mmHg 89%
    06:00 +22°C° 0 mm 0 mps 750 mmHg 86%
    07:00 +23°C° 0 mm 0 mps 751 mmHg 83%
    08:00 +27°C° 0 mm 1 mps 751 mmHg 76%
    09:00 +28°C° 0 mm 1 mps 751 mmHg 69%
    10:00 +30°C° 0 mm 1 mps 751 mmHg 61%
    11:00 +31°C° 0 mm 2 mps 751 mmHg 59%
    12:00 +31°C° 0 mm 2 mps 751 mmHg 57%
    13:00 +32°C° 0 mm 2 mps 750 mmHg 55%
    14:00 +32°C° 0 mm 2 mps 750 mmHg 56%
    15:00 +32°C° 0 mm 2 mps 749 mmHg 58%
    16:00 +31°C° 0 mm 2 mps 749 mmHg 60%
    17:00 +30°C° 0 mm 1 mps 749 mmHg 67%
    18:00 +28°C° 0 mm 1 mps 749 mmHg 74%
    19:00 +25°C° 0 mm 0 mps 749 mmHg 81%
    20:00 +24°C° 0 mm 0 mps 749 mmHg 83%
    21:00 +23°C° 0 mm 0 mps 749 mmHg 85%
    22:00 +22°C° 0 mm 0 mps 749 mmHg 87%
    23:00 +22°C° 0 mm 0 mps 749 mmHg 88%

    Tomorrow, 27 June, Thursday

    Time Temperature Precipitation Wind Pressure Humidity
    00:00 +21°C° 0 mm 0 mps 748 mmHg 89%
    01:00 +21°C° 0 mm 0 mps 748 mmHg 89%
    02:00 +21°C° 0 mm 0 mps 748 mmHg 90%
    03:00 +20°C° 0 mm 0 mps 748 mmHg 90%
    04:00 +20°C° 0 mm 0 mps 748 mmHg 91%
    05:00 +23°C° 0 mm 1 mps 748 mmHg 87%
    06:00 +25°C° 0 mm 1 mps 747 mmHg 83%
    07:00 +26°C° 0 mm 1 mps 747 mmHg 79%
    08:00 +28°C° 0 mm 1 mps 747 mmHg 72%
    09:00 +30°C° 0 mm 1 mps 747 mmHg 66%
    10:00 +31°C° 0 mm 1 mps 747 mmHg 59%
    11:00 +32°C° 0 mm 1 mps 747 mmHg 57%
    12:00 +33°C° 0 mm 1 mps 746 mmHg 55%
    13:00 +34°C° 0 mm 1 mps 746 mmHg 53%
    14:00 +33°C° 0.1 mm 1 mps 745 mmHg 56%
    15:00 +33°C° 0.1 mm 1 mps 745 mmHg 59%
    16:00 +34°C° 0.1 mm 2 mps 745 mmHg 62%
    17:00 +31°C° 0.6 mm 2 mps 745 mmHg 70%
    18:00 +30°C° 0.6 mm 2 mps 744 mmHg 78%
    19:00 +28°C° 0.6 mm 2 mps 744 mmHg 86%
    20:00 +26°C° 1 mm 2 mps 745 mmHg 87%
    21:00 +25°C° 1 mm 3 mps 745 mmHg 87%
    22:00 +22°C° 1 mm 3 mps 745 mmHg 88%
    23:00 +21°C° 0.3 mm 2 mps 746 mmHg 87%

    Day after tomorrow, 28 June, Friday

    Time Temperature Precipitation Wind Pressure Humidity
    00:00 +19°C° 0.3 mm 2 mps 746 mmHg 85%
    01:00 +19°C° 0.3 mm 1 mps 747 mmHg 84%
    02:00 +19°C° 0 mm 1 mps 747 mmHg 85%
    03:00 +18°C° 0 mm 1 mps 747 mmHg 86%
    04:00 +16°C° 0 mm 1 mps 747 mmHg 86%
    05:00 +18°C° 0 mm 2 mps 747 mmHg 81%
    06:00 +19°C° 0 mm 2 mps 747 mmHg 77%
    07:00 +20°C° 0 mm 2 mps 747 mmHg 72%
    08:00 +21°C° 0 mm 2 mps 747 mmHg 65%
    09:00 +24°C° 0 mm 2 mps 747 mmHg 59%
    10:00 +25°C° 0 mm 2 mps 747 mmHg 53%
    11:00 +26°C° 0 mm 3 mps 747 mmHg 52%
    12:00 +26°C° 0 mm 3 mps 747 mmHg 51%
    13:00 +27°C° 0 mm 4 mps 746 mmHg 51%
    14:00 +26°C° 0 mm 3 mps 746 mmHg 53%
    15:00 +26°C° 0 mm 3 mps 746 mmHg 55%
    16:00 +26°C° 0 mm 3 mps 746 mmHg 57%
    17:00 +25°C° 0 mm 2 mps 746 mmHg 64%
    18:00 +23°C° 0 mm 2 mps 746 mmHg 72%
    19:00 +22°C° 0 mm 1 mps 746 mmHg 79%
    20:00 +21°C° 0 mm 1 mps 746 mmHg 81%
    21:00 +20°C° 0 mm 1 mps 747 mmHg 83%
    22:00 +19°C° 0 mm 1 mps 747 mmHg 84%
    23:00 +19°C° 0 mm 1 mps 747 mmHg 85%

    29 June, Saturday

    Time Temperature Precipitation Wind Pressure Humidity
    00:00 +18°C° 0 mm 1 mps 747 mmHg 85%
    01:00 +18°C° 0 mm 1 mps 747 mmHg 85%
    02:00 +18°C° 0 mm 1 mps 747 mmHg 87%
    03:00 +16°C° 0 mm 1 mps 747 mmHg 89%
    04:00 +16°C° 0 mm 1 mps 747 mmHg 90%
    05:00 +18°C° 0 mm 1 mps 747 mmHg 85%
    06:00 +20°C° 0 mm 1 mps 747 mmHg 80%
    07:00 +21°C° 0 mm 1 mps 747 mmHg 74%
    08:00 +23°C° 0 mm 1 mps 747 mmHg 68%
    09:00 +24°C° 0 mm 1 mps 748 mmHg 63%
    10:00 +26°C° 0 mm 1 mps 748 mmHg 57%
    11:00 +26°C° 0 mm 2 mps 747 mmHg 56%
    12:00 +27°C° 0 mm 2 mps 747 mmHg 55%
    13:00 +27°C° 0 mm 2 mps 747 mmHg 54%
    14:00 +27°C° 0 mm 3 mps 747 mmHg 55%
    15:00 +27°C° 0 mm 3 mps 747 mmHg 56%
    16:00 +26°C° 0 mm 3 mps 747 mmHg 57%
    17:00 +25°C° 0 mm 2 mps 747 mmHg 63%
    18:00 +23°C° 0 mm 2 mps 747 mmHg 70%
    19:00 +22°C° 0 mm 1 mps 747 mmHg 76%
    20:00 +21°C° 0 mm 1 mps 747 mmHg 78%
    21:00 +20°C° 0 mm 1 mps 747 mmHg 80%
    22:00 +18°C° 0 mm 1 mps 748 mmHg 82%
    23:00 +18°C° 0 mm 1 mps 748 mmHg 85%

    30 June, Sunday

    Time Temperature Precipitation Wind Pressure Humidity
    00:00 +18°C° 0 mm 1 mps 748 mmHg 87%
    01:00 +18°C° 0 mm 1 mps 748 mmHg 90%
    02:00 +16°C° 0 mm 1 mps 748 mmHg 91%
    03:00 +16°C° 0 mm 1 mps 748 mmHg 91%
    04:00 +16°C° 0 mm 1 mps 748 mmHg 92%
    05:00 +18°C° 0 mm 1 mps 748 mmHg 85%
    06:00 +20°C° 0 mm 1 mps 748 mmHg 78%
    07:00 +20°C° 0 mm 2 mps 748 mmHg 71%
    08:00 +21°C° 0 mm 2 mps 749 mmHg 65%
    09:00 +24°C° 0 mm 2 mps 749 mmHg 59%
    10:00 +25°C° 0 mm 3 mps 749 mmHg 53%
    11:00 +26°C° 0 mm 3 mps 749 mmHg 53%
    12:00 +26°C° 0 mm 3 mps 748 mmHg 52%
    13:00 +27°C° 0 mm 3 mps 748 mmHg 52%
    14:00 +26°C° 0 mm 3 mps 748 mmHg 54%
    15:00 +26°C° 0 mm 3 mps 748 mmHg 55%
    16:00 +26°C° 0 mm 3 mps 747 mmHg 57%
    17:00 +24°C° 0 mm 2 mps 747 mmHg 64%
    18:00 +23°C° 0 mm 2 mps 747 mmHg 71%
    19:00 +21°C° 0 mm 1 mps 747 mmHg 78%
    20:00 +20°C° 0 mm 1 mps 747 mmHg 78%
    21:00 +19°C° 0 mm 1 mps 747 mmHg 78%
    22:00 +18°C° 0 mm 1 mps 747 mmHg 78%
    23:00 +18°C° 0 mm 1 mps 747 mmHg 79%

    1 July, Monday

    Time Temperature Precipitation Wind Pressure Humidity
    00:00 +18°C° 0 mm 1 mps 747 mmHg 80%
    01:00 +16°C° 0 mm 1 mps 747 mmHg 81%
    02:00 +16°C° 0 mm 1 mps 746 mmHg 82%
    03:00 +15°C° 0 mm 1 mps 746 mmHg 83%
    04:00 +14°C° 0 mm 0 mps 746 mmHg 84%
    05:00 +18°C° 0 mm 1 mps 746 mmHg 80%
    06:00 +20°C° 0 mm 1 mps 746 mmHg 75%
    07:00 +21°C° 0 mm 1 mps 746 mmHg 71%
    08:00 +23°C° 0 mm 1 mps 746 mmHg 65%
    09:00 +25°C° 0 mm 1 mps 746 mmHg 60%
    10:00 +27°C° 0 mm 1 mps 746 mmHg 54%
    11:00 +28°C° 0 mm 1 mps 746 mmHg 52%
    12:00 +29°C° 0 mm 1 mps 745 mmHg 50%
    13:00 +30°C° 0 mm 1 mps 745 mmHg 47%
    14:00 +30°C° 0 mm 1 mps 745 mmHg 50%
    15:00 +30°C° 0 mm 2 mps 744 mmHg 53%
    16:00 +30°C° 0 mm 2 mps 744 mmHg 55%
    17:00 +28°C° 0 mm 1 mps 744 mmHg 64%
    18:00 +26°C° 0 mm 1 mps 743 mmHg 73%
    19:00 +24°C° 0 mm 1 mps 743 mmHg 81%
    20:00 +23°C° 0 mm 1 mps 743 mmHg 82%
    21:00 +22°C° 0 mm 1 mps 743 mmHg 82%
    22:00 +19°C° 0 mm 0 mps 743 mmHg 82%
    23:00 +19°C° 0 mm 0 mps 744 mmHg 80%
    Show more